QPF
0.00 0.02 0.05 0.05 0.08 0.06 0.04 0.01 0.01 0.01 0.00 0.01 0.01 0.01 0.02 0.03 0.07 0.13 0.15 0.14 0.10 0.11 0.14 0.13 0.20 0.30 0.24 0.19 0.18 0.16 0.12 0.09 0.07 0.06 0.06 0.06 0.06 0.06 0.07 0.09 0.09 0.11 0.17 0.21 0.09 0.12 0.17 0.15 0.09
0.03 0.03 0.05 0.06 0.08 0.04 0.03 0.02 0.01 0.01 0.00 0.00 0.00 0.01 0.02 0.03 0.04 0.08 0.11 0.11 0.08 0.06 0.09 0.09 0.16 0.24 0.24 0.22 0.18 0.16 0.15 0.09 0.07 0.05 0.06 0.07 0.06 0.05 0.05 0.06 0.07 0.07 0.09 0.08 0.09 0.13 0.16 0.10 0.09
0.02 0.04 0.06 0.06 0.04 0.03 0.03 0.02 0.02 0.01 0.01 0.01 0.02 0.03 0.05 0.07 0.05 0.09 0.12 0.11 0.08 0.06 0.06 0.09 0.19 0.25 0.26 0.24 0.20 0.18 0.13 0.09 0.07 0.05 0.07 0.07 0.05 0.04 0.04 0.04 0.05 0.07 0.07 0.08 0.08 0.09 0.10 0.06 0.06
0.05 0.08 0.06 0.04 0.02 0.02 0.03 0.03 0.03 0.03 0.02 0.02 0.03 0.05 0.09 0.10 0.10 0.11 0.11 0.09 0.07 0.05 0.06 0.11 0.14 0.16 0.18 0.18 0.16 0.14 0.11 0.08 0.07 0.06 0.07 0.06 0.04 0.04 0.04 0.04 0.05 0.05 0.06 0.06 0.05 0.05 0.05 0.05 0.05
0.08 0.14 0.10 0.05 0.03 0.03 0.03 0.03 0.03 0.03 0.02 0.02 0.02 0.05 0.10 0.12 0.11 0.09 0.07 0.05 0.05 0.05 0.07 0.08 0.10 0.12 0.13 0.13 0.10 0.09 0.08 0.07 0.07 0.08 0.07 0.05 0.04 0.04 0.04 0.05 0.04 0.04 0.04 0.05 0.04 0.04 0.05 0.05 0.04
0.14 0.13 0.05 0.03 0.03 0.03 0.03 0.03 0.03 0.03 0.02 0.01 0.01 0.03 0.10 0.11 0.09 0.08 0.06 0.05 0.04 0.05 0.05 0.05 0.07 0.08 0.08 0.08 0.08 0.06 0.06 0.06 0.08 0.09 0.07 0.05 0.04 0.04 0.05 0.05 0.04 0.04 0.04 0.04 0.03 0.03 0.04 0.03 0.02
0.06 0.07 0.04 0.02 0.01 0.01 0.01 0.01 0.02 0.02 0.01 0.01 0.01 0.03 0.07 0.09 0.07 0.05 0.04 0.04 0.03 0.03 0.04 0.05 0.05 0.07 0.08 0.08 0.08 0.07 0.05 0.06 0.08 0.09 0.07 0.06 0.05 0.05 0.05 0.05 0.04 0.04 0.04 0.03 0.02 0.02 0.04 0.02 0.02
0.02 0.02 0.02 0.01 0.01 0.01 0.01 0.00 0.00 0.01 0.02 0.01 0.01 0.04 0.07 0.07 0.06 0.04 0.02 0.02 0.03 0.03 0.03 0.04 0.04 0.05 0.05 0.06 0.07 0.06 0.05 0.07 0.09 0.09 0.09 0.07 0.05 0.05 0.06 0.06 0.04 0.04 0.04 0.03 0.02 0.03 0.04 0.03 0.02
0.01 0.01 0.01 0.01 0.01 0.01 0.01 0.00 0.01 0.01 0.01 0.01 0.02 0.03 0.05 0.06 0.04 0.02 0.02 0.02 0.02 0.03 0.04 0.04 0.03 0.03 0.03 0.04 0.04 0.04 0.06 0.08 0.11 0.11 0.11 0.10 0.07 0.08 0.10 0.07 0.05 0.04 0.03 0.03 0.04 0.04 0.04 0.03 0.02
0.01 0.01 0.01 0.01 0.01 0.01 0.00 0.00 0.01 0.01 0.01 0.02 0.02 0.02 0.03 0.03 0.02 0.01 0.01 0.02 0.03 0.05 0.05 0.04 0.03 0.03 0.03 0.05 0.05 0.06 0.07 0.09 0.12 0.12 0.10 0.11 0.10 0.12 0.09 0.10 0.07 0.04 0.04 0.04 0.06 0.06 0.07 0.07 0.06
0.01 0.00 0.00 0.01 0.01 0.00 0.00 0.01 0.01 0.01 0.01 0.01 0.01 0.01 0.02 0.01 0.01 0.01 0.01 0.02 0.03 0.03 0.04 0.04 0.04 0.06 0.06 0.05 0.05 0.06 0.07 0.09 0.12 0.10 0.08 0.11 0.11 0.10 0.08 0.10 0.10 0.09 0.06 0.05 0.07 0.06 0.10 0.11 0.09
0.00 0.00 0.00 0.01 0.01 0.01 0.01 0.02 0.01 0.02 0.02 0.02 0.01 0.01 0.01 0.01 0.01 0.01 0.01 0.02 0.02 0.02 0.04 0.07 0.08 0.07 0.06 0.05 0.06 0.05 0.07 0.09 0.11 0.10 0.07 0.08 0.11 0.11 0.11 0.11 0.10 0.11 0.10 0.10 0.10 0.09 0.08 0.09 0.08
0.00 0.00 0.00 0.00 0.00 0.01 0.02 0.02 0.02 0.02 0.02 0.02 0.01 0.01 0.01 0.01 0.01 0.01 0.01 0.02 0.02 0.02 0.04 0.09 0.09 0.06 0.05 0.06 0.07 0.06 0.06 0.08 0.09 0.09 0.07 0.08 0.10 0.13 0.13 0.12 0.09 0.07 0.09 0.11 0.09 0.06 0.06 0.09 0.10
0.00 0.00 0.00 0.00 0.00 0.01 0.01 0.02 0.02 0.02 0.02 0.01 0.01 0.01 0.01 0.01 0.01 0.01 0.01 0.02 0.02 0.03 0.06 0.08 0.09 0.06 0.05 0.06 0.06 0.07 0.06 0.08 0.08 0.08 0.07 0.09 0.12 0.14 0.13 0.10 0.09 0.08 0.09 0.10 0.08 0.06 0.08 0.10 0.10
0.00 0.00 0.00 0.00 0.00 0.00 0.01 0.01 0.02 0.02 0.01 0.01 0.00 0.00 0.00 0.01 0.01 0.02 0.02 0.03 0.04 0.04 0.08 0.10 0.10 0.05 0.04 0.06 0.06 0.07 0.08 0.07 0.09 0.11 0.09 0.10 0.10 0.12 0.11 0.10 0.09 0.09 0.09 0.08 0.09 0.08 0.09 0.09 0.08
0.00 0.01 0.01 0.00 0.00 0.00 0.01 0.03 0.03 0.02 0.01 0.00 0.00 0.00 0.00 0.01 0.01 0.01 0.01 0.02 0.03 0.03 0.06 0.11 0.11 0.05 0.04 0.05 0.07 0.10 0.10 0.08 0.09 0.12 0.11 0.08 0.10 0.10 0.09 0.10 0.10 0.10 0.08 0.09 0.10 0.10 0.10 0.10 0.08
0.01 0.01 0.01 0.00 0.00 0.00 0.01 0.02 0.04 0.04 0.03 0.01 0.01 0.00 0.01 0.01 0.01 0.01 0.01 0.01 0.02 0.02 0.03 0.09 0.11 0.07 0.04 0.04 0.08 0.13 0.14 0.10 0.10 0.10 0.09 0.07 0.08 0.08 0.09 0.10 0.12 0.10 0.08 0.09 0.09 0.10 0.11 0.10 0.09
0.03 0.02 0.01 0.01 0.00 0.00 0.00 0.01 0.02 0.04 0.03 0.01 0.01 0.01 0.01 0.01 0.00 0.00 0.01 0.01 0.01 0.02 0.03 0.06 0.10 0.08 0.06 0.06 0.09 0.11 0.14 0.11 0.11 0.09 0.09 0.08 0.09 0.08 0.10 0.10 0.12 0.11 0.11 0.11 0.09 0.09 0.10 0.11 0.09
0.02 0.01 0.01 0.00 0.00 0.00 0.00 0.01 0.01 0.02 0.02 0.01 0.02 0.01 0.01 0.00 0.00 0.00 0.01 0.01 0.02 0.03 0.03 0.04 0.09 0.10 0.08 0.07 0.10 0.12 0.13 0.12 0.10 0.11 0.10 0.08 0.09 0.09 0.09 0.11 0.14 0.12 0.12 0.12 0.10 0.09 0.09 0.08 0.08
0.01 0.01 0.01 0.00 0.00 0.00 0.00 0.00 0.01 0.00 0.01 0.01 0.02 0.01 0.01 0.00 0.00 0.00 0.00 0.01 0.02 0.04 0.04 0.04 0.06 0.09 0.08 0.07 0.07 0.10 0.11 0.11 0.10 0.13 0.15 0.10 0.09 0.08 0.08 0.11 0.11 0.11 0.13 0.11 0.09 0.08 0.08 0.07 0.06
0.01 0.02 0.01 0.00 0.00 0.00 0.02 0.02 0.01 0.00 0.00 0.01 0.02 0.01 0.01 0.00 0.00 0.00 0.00 0.01 0.02 0.03 0.04 0.04 0.04 0.07 0.08 0.08 0.06 0.06 0.09 0.08 0.11 0.13 0.15 0.13 0.10 0.08 0.08 0.08 0.09 0.09 0.07 0.10 0.09 0.08 0.10 0.10 0.07
0.00 0.01 0.01 0.00 0.00 0.00 0.01 0.03 0.03 0.02 0.00 0.00 0.01 0.01 0.01 0.00 0.00 0.00 0.00 0.01 0.02 0.03 0.03 0.04 0.04 0.05 0.08 0.06 0.06 0.06 0.08 0.09 0.11 0.11 0.13 0.14 0.13 0.10 0.07 0.06 0.07 0.07 0.07 0.09 0.08 0.09 0.09 0.11 0.10
0.00 0.00 0.00 0.00 0.00 0.01 0.00 0.02 0.03 0.05 0.01 0.00 0.00 0.00 0.00 0.00 0.00 0.00 0.00 0.00 0.01 0.01 0.02 0.03 0.04 0.06 0.08 0.06 0.06 0.07 0.07 0.07 0.07 0.07 0.11 0.11 0.11 0.08 0.06 0.06 0.08 0.07 0.07 0.07 0.09 0.09 0.07 0.09 0.08
0.00 0.00 0.00 0.00 0.00 0.01 0.00 0.01 0.04 0.05 0.02 0.01 0.00 0.00 0.00 0.00 0.00 0.00 0.00 0.00 0.00 0.01 0.01 0.02 0.03 0.05 0.05 0.05 0.05 0.06 0.07 0.08 0.07 0.06 0.08 0.08 0.07 0.05 0.04 0.05 0.07 0.08 0.07 0.07 0.07 0.08 0.05 0.06 0.05
0.00 0.01 0.01 0.01 0.01 0.01 0.00 0.01 0.02 0.01 0.01 0.00 0.00 0.00 0.00 0.00 0.00 0.00 0.00 0.00 0.00 0.00 0.00 0.01 0.01 0.03 0.04 0.04 0.03 0.04 0.06 0.07 0.06 0.06 0.08 0.08 0.05 0.04 0.05 0.05 0.07 0.07 0.07 0.07 0.07 0.07 0.07 0.05 0.05
0.00 0.00 0.00 0.01 0.01 0.01 0.00 0.00 0.01 0.01 0.00 0.00 0.00 0.00 0.00 0.00 0.00 0.00 0.00 0.00 0.00 0.00 0.00 0.00 0.01 0.02 0.03 0.03 0.03 0.03 0.04 0.05 0.05 0.07 0.06 0.06 0.05 0.05 0.04 0.05 0.05 0.04 0.05 0.05 0.06 0.07 0.07 0.08 0.07
0.00 0.00 0.00 0.00 0.01 0.01 0.01 0.00 0.00 0.00 0.00 0.00 0.00 0.00 0.00 0.00 0.00 0.00 0.00 0.00 0.00 0.00 0.00 0.00 0.01 0.01 0.02 0.02 0.02 0.03 0.03 0.03 0.05 0.06 0.06 0.06 0.05 0.04 0.04 0.04 0.04 0.04 0.05 0.06 0.06 0.06 0.06 0.07 0.07
0.00 0.00 0.01 0.01 0.01 0.01 0.01 0.01 0.01 0.01 0.00 0.00 0.00 0.00 0.00 0.00 0.00 0.00 0.00 0.00 0.00 0.00 0.00 0.00 0.00 0.01 0.02 0.02 0.02 0.02 0.02 0.03 0.03 0.04 0.04 0.04 0.03 0.03 0.03 0.04 0.05 0.06 0.05 0.05 0.06 0.06 0.07 0.07 0.08
0.00 0.00 0.00 0.00 0.00 0.00 0.01 0.02 0.01 0.01 0.00 0.00 0.00 0.00 0.00 0.00 0.00 0.00 0.00 0.00 0.00 0.00 0.00 0.00 0.00 0.01 0.01 0.01 0.02 0.03 0.03 0.02 0.02 0.03 0.03 0.03 0.03 0.03 0.04 0.05 0.05 0.04 0.04 0.05 0.07 0.06 0.07 0.07 0.08
0.00 0.00 0.00 0.00 0.00 0.00 0.01 0.02 0.01 0.01 0.01 0.01 0.01 0.00 0.00 0.00 0.00 0.00 0.00 0.00 0.00 0.00 0.00 0.00 0.00 0.00 0.00 0.00 0.01 0.02 0.02 0.02 0.02 0.03 0.03 0.03 0.03 0.03 0.04 0.05 0.05 0.04 0.06 0.07 0.07 0.06 0.06 0.08 0.07
MSLP
1005.43 1006.63 1008.01 1009.36 1010.48 1011.22 1011.49 1011.32 1010.81 1010.13 1009.46 1008.96 1008.71 1008.72 1008.90 1009.17 1009.39 1009.48 1009.41 1009.22 1009.00 1008.82 1008.78 1008.89 1009.14 1009.44 1009.68 1009.78 1009.68 1009.37 1008.90 1008.37 1007.87 1007.47 1007.21 1007.05 1006.95 1006.83 1006.61 1006.28 1005.84 1005.36 1004.93 1004.64 1004.56 1004.70 1005.06 1005.58 1006.17
1005.79 1007.10 1008.51 1009.81 1010.81 1011.38 1011.47 1011.14 1010.50 1009.73 1009.02 1008.51 1008.26 1008.26 1008.45 1008.71 1008.93 1009.04 1009.02 1008.92 1008.80 1008.75 1008.84 1009.07 1009.40 1009.76 1010.04 1010.15 1010.06 1009.76 1009.32 1008.82 1008.35 1007.99 1007.76 1007.65 1007.58 1007.51 1007.37 1007.13 1006.81 1006.47 1006.17 1005.98 1005.94 1006.08 1006.36 1006.75 1007.17
1006.09 1007.44 1008.81 1010.00 1010.84 1011.24 1011.18 1010.72 1010.02 1009.25 1008.57 1008.10 1007.88 1007.91 1008.09 1008.32 1008.52 1008.62 1008.62 1008.57 1008.54 1008.60 1008.81 1009.15 1009.57 1010.00 1010.32 1010.47 1010.40 1010.14 1009.74 1009.29 1008.87 1008.54 1008.33 1008.22 1008.16 1008.09 1007.97 1007.78 1007.54 1007.29 1007.09 1006.99 1007.01 1007.16 1007.40 1007.69 1007.99
1006.27 1007.59 1008.85 1009.89 1010.57 1010.82 1010.65 1010.15 1009.47 1008.77 1008.19 1007.82 1007.68 1007.74 1007.91 1008.11 1008.25 1008.30 1008.28 1008.24 1008.27 1008.41 1008.71 1009.14 1009.64 1010.13 1010.50 1010.69 1010.67 1010.46 1010.12 1009.73 1009.36 1009.08 1008.88 1008.77 1008.69 1008.60 1008.47 1008.30 1008.11 1007.94 1007.83 1007.81 1007.90 1008.06 1008.28 1008.50 1008.71
1006.28 1007.51 1008.63 1009.51 1010.03 1010.17 1009.96 1009.50 1008.93 1008.38 1007.96 1007.74 1007.71 1007.82 1007.98 1008.11 1008.17 1008.14 1008.06 1008.00 1008.04 1008.23 1008.58 1009.07 1009.62 1010.15 1010.55 1010.77 1010.80 1010.65 1010.38 1010.06 1009.77 1009.54 1009.38 1009.27 1009.17 1009.07 1008.93 1008.78 1008.63 1008.52 1008.49 1008.55 1008.69 1008.88 1009.07 1009.25 1009.37
1006.13 1007.21 1008.17 1008.89 1009.29 1009.38 1009.19 1008.84 1008.43 1008.10 1007.90 1007.86 1007.96 1008.12 1008.26 1008.33 1008.30 1008.17 1008.01 1007.91 1007.92 1008.12 1008.48 1008.99 1009.55 1010.08 1010.49 1010.72 1010.78 1010.68 1010.48 1010.25 1010.04 1009.88 1009.77 1009.69 1009.61 1009.51 1009.38 1009.24 1009.13 1009.08 1009.12 1009.24 1009.42 1009.63 1009.81 1009.92 1009.97
1005.85 1006.77 1007.56 1008.14 1008.46 1008.53 1008.42 1008.22 1008.03 1007.93 1007.97 1008.12 1008.35 1008.56 1008.70 1008.71 1008.59 1008.37 1008.14 1007.98 1007.96 1008.13 1008.48 1008.96 1009.49 1009.98 1010.35 1010.56 1010.62 1010.55 1010.41 1010.26 1010.14 1010.07 1010.04 1010.01 1009.97 1009.90 1009.80 1009.69 1009.62 1009.62 1009.71 1009.87 1010.08 1010.29 1010.44 1010.49 1010.46
1005.50 1006.26 1006.91 1007.37 1007.64 1007.73 1007.72 1007.69 1007.72 1007.85 1008.10 1008.43 1008.77 1009.04 1009.18 1009.15 1008.97 1008.69 1008.40 1008.20 1008.15 1008.29 1008.60 1009.03 1009.49 1009.90 1010.20 1010.35 1010.38 1010.32 1010.22 1010.14 1010.10 1010.12 1010.17 1010.22 1010.24 1010.21 1010.15 1010.08 1010.04 1010.08 1010.19 1010.38 1010.60 1010.79 1010.90 1010.90 1010.79
1005.17 1005.80 1006.33 1006.71 1006.95 1007.08 1007.17 1007.29 1007.50 1007.82 1008.24 1008.70 1009.13 1009.45 1009.59 1009.55 1009.35 1009.05 1008.75 1008.54 1008.48 1008.60 1008.86 1009.22 1009.59 1009.90 1010.10 1010.17 1010.14 1010.05 1009.97 1009.93 1009.97 1010.07 1010.20 1010.32 1010.40 1010.42 1010.39 1010.35 1010.34 1010.39 1010.52 1010.70 1010.90 1011.06 1011.14 1011.09 1010.94
1004.94 1005.47 1005.91 1006.24 1006.47 1006.64 1006.80 1007.03 1007.37 1007.82 1008.34 1008.89 1009.37 1009.71 1009.87 1009.84 1009.65 1009.38 1009.11 1008.93 1008.89 1009.01 1009.24 1009.54 1009.82 1010.02 1010.11 1010.08 1009.97 1009.84 1009.74 1009.73 1009.80 1009.95 1010.14 1010.32 1010.45 1010.51 1010.52 1010.49 1010.49 1010.53 1010.64 1010.80 1010.98 1011.11 1011.15 1011.08 1010.90
1004.84 1005.32 1005.72 1006.01 1006.24 1006.43 1006.65 1006.94 1007.33 1007.83 1008.40 1008.96 1009.45 1009.80 1009.97 1009.97 1009.83 1009.62 1009.42 1009.31 1009.32 1009.45 1009.68 1009.93 1010.13 1010.24 1010.23 1010.11 1009.93 1009.75 1009.62 1009.59 1009.68 1009.85 1010.06 1010.27 1010.43 1010.51 1010.52 1010.50 1010.49 1010.51 1010.59 1010.71 1010.85 1010.96 1010.98 1010.90 1010.73
1004.88 1005.35 1005.73 1006.02 1006.24 1006.45 1006.68 1006.99 1007.38 1007.87 1008.41 1008.94 1009.40 1009.74 1009.92 1009.95 1009.87 1009.75 1009.64 1009.61 1009.69 1009.86 1010.09 1010.32 1010.49 1010.54 1010.46 1010.28 1010.04 1009.81 1009.64 1009.58 1009.64 1009.80 1010.01 1010.21 1010.37 1010.45 1010.46 1010.42 1010.38 1010.37 1010.41 1010.50 1010.61 1010.69 1010.72 1010.66 1010.53
1005.05 1005.52 1005.90 1006.19 1006.42 1006.63 1006.86 1007.14 1007.50 1007.93 1008.40 1008.87 1009.27 1009.58 1009.76 1009.83 1009.81 1009.77 1009.75 1009.81 1009.95 1010.17 1010.42 1010.66 1010.81 1010.84 1010.74 1010.53 1010.27 1010.01 1009.81 1009.71 1009.73 1009.84 1010.01 1010.18 1010.31 1010.37 1010.37 1010.31 1010.24 1010.20 1010.21 1010.26 1010.34 1010.42 1010.46 1010.44 1010.37
1005.27 1005.75 1006.14 1006.44 1006.68 1006.89 1007.10 1007.35 1007.65 1008.01 1008.39 1008.77 1009.12 1009.38 1009.56 1009.65 1009.69 1009.71 1009.76 1009.88 1010.07 1010.32 1010.60 1010.85 1011.02 1011.08 1011.00 1010.82 1010.57 1010.31 1010.09 1009.96 1009.93 1009.98 1010.09 1010.20 1010.29 1010.33 1010.30 1010.23 1010.15 1010.09 1010.06 1010.09 1010.15 1010.23 1010.30 1010.32 1010.30
1005.47 1005.94 1006.34 1006.65 1006.91 1007.12 1007.32 1007.54 1007.78 1008.07 1008.37 1008.68 1008.96 1009.20 1009.37 1009.48 1009.55 1009.61 1009.70 1009.85 1010.06 1010.32 1010.62 1010.89 1011.10 1011.20 1011.19 1011.08 1010.88 1010.66 1010.44 1010.28 1010.20 1010.19 1010.22 1010.28 1010.33 1010.33 1010.30 1010.23 1010.14 1010.07 1010.04 1010.05 1010.10 1010.18 1010.26 1010.33 1010.36
1005.60 1006.05 1006.43 1006.75 1007.02 1007.25 1007.45 1007.65 1007.85 1008.08 1008.32 1008.57 1008.81 1009.02 1009.19 1009.32 1009.42 1009.51 1009.61 1009.75 1009.95 1010.20 1010.49 1010.77 1011.02 1011.20 1011.27 1011.25 1011.14 1010.98 1010.79 1010.62 1010.50 1010.43 1010.40 1010.40 1010.41 1010.40 1010.37 1010.31 1010.25 1010.19 1010.16 1010.16 1010.20 1010.28 1010.36 1010.45 1010.52
1005.64 1006.03 1006.39 1006.72 1007.01 1007.25 1007.47 1007.65 1007.83 1008.01 1008.20 1008.41 1008.63 1008.84 1009.02 1009.18 1009.30 1009.40 1009.50 1009.63 1009.79 1010.00 1010.26 1010.55 1010.83 1011.07 1011.24 1011.33 1011.32 1011.23 1011.09 1010.93 1010.78 1010.67 1010.59 1010.54 1010.52 1010.51 1010.50 1010.48 1010.45 1010.41 1010.39 1010.39 1010.43 1010.49 1010.57 1010.66 1010.74
1005.59 1005.91 1006.25 1006.58 1006.89 1007.17 1007.39 1007.56 1007.71 1007.85 1008.00 1008.17 1008.37 1008.59 1008.81 1009.01 1009.17 1009.30 1009.40 1009.50 1009.62 1009.78 1010.00 1010.27 1010.57 1010.87 1011.12 1011.31 1011.41 1011.41 1011.33 1011.19 1011.03 1010.88 1010.76 1010.69 1010.66 1010.66 1010.68 1010.70 1010.71 1010.72 1010.71 1010.71 1010.73 1010.77 1010.83 1010.91 1011.00
1005.50 1005.76 1006.08 1006.43 1006.77 1007.07 1007.29 1007.44 1007.54 1007.61 1007.70 1007.83 1008.01 1008.24 1008.50 1008.76 1008.98 1009.15 1009.28 1009.38 1009.47 1009.59 1009.76 1010.00 1010.30 1010.64 1010.96 1011.23 1011.42 1011.51 1011.49 1011.38 1011.23 1011.07 1010.93 1010.85 1010.82 1010.84 1010.90 1010.96 1011.02 1011.06 1011.07 1011.07 1011.07 1011.09 1011.12 1011.18 1011.26
1005.41 1005.65 1005.99 1006.38 1006.76 1007.07 1007.28 1007.38 1007.39 1007.36 1007.34 1007.38 1007.52 1007.74 1008.04 1008.37 1008.67 1008.93 1009.12 1009.24 1009.33 1009.43 1009.57 1009.78 1010.07 1010.42 1010.78 1011.12 1011.39 1011.55 1011.59 1011.53 1011.40 1011.24 1011.10 1011.01 1010.99 1011.04 1011.13 1011.25 1011.35 1011.42 1011.45 1011.45 1011.43 1011.41 1011.42 1011.46 1011.53
1005.37 1005.64 1006.04 1006.51 1006.94 1007.27 1007.45 1007.46 1007.33 1007.14 1006.96 1006.87 1006.91 1007.10 1007.42 1007.81 1008.22 1008.58 1008.86 1009.06 1009.18 1009.29 1009.41 1009.60 1009.88 1010.23 1010.62 1011.00 1011.33 1011.55 1011.66 1011.64 1011.55 1011.41 1011.28 1011.20 1011.20 1011.26 1011.39 1011.54 1011.68 1011.78 1011.82 1011.82 1011.79 1011.74 1011.73 1011.75 1011.82
1005.41 1005.77 1006.29 1006.87 1007.38 1007.73 1007.86 1007.75 1007.44 1007.03 1006.63 1006.34 1006.23 1006.34 1006.64 1007.09 1007.59 1008.07 1008.48 1008.77 1008.98 1009.12 1009.26 1009.45 1009.71 1010.06 1010.46 1010.87 1011.24 1011.53 1011.69 1011.74 1011.68 1011.58 1011.47 1011.41 1011.42 1011.51 1011.66 1011.84 1012.01 1012.13 1012.19 1012.19 1012.15 1012.09 1012.06 1012.07 1012.14
1005.49 1006.01 1006.70 1007.43 1008.04 1008.42 1008.49 1008.24 1007.72 1007.06 1006.39 1005.86 1005.55 1005.53 1005.78 1006.24 1006.82 1007.42 1007.95 1008.37 1008.67 1008.89 1009.06 1009.26 1009.53 1009.87 1010.28 1010.72 1011.13 1011.47 1011.70 1011.80 1011.80 1011.74 1011.67 1011.63 1011.66 1011.77 1011.93 1012.13 1012.32 1012.47 1012.55 1012.56 1012.52 1012.47 1012.42 1012.43 1012.50
1005.61 1006.32 1007.20 1008.09 1008.81 1009.22 1009.24 1008.85 1008.13 1007.20 1006.26 1005.45 1004.92 1004.73 1004.88 1005.32 1005.95 1006.63 1007.28 1007.83 1008.24 1008.54 1008.77 1009.00 1009.28 1009.64 1010.06 1010.53 1010.98 1011.37 1011.66 1011.83 1011.89 1011.88 1011.85 1011.84 1011.89 1012.00 1012.18 1012.40 1012.61 1012.78 1012.88 1012.92 1012.90 1012.86 1012.82 1012.82 1012.89
1005.72 1006.61 1007.67 1008.71 1009.54 1009.99 1009.96 1009.46 1008.56 1007.40 1006.19 1005.13 1004.37 1004.00 1004.03 1004.41 1005.04 1005.78 1006.52 1007.16 1007.68 1008.06 1008.37 1008.64 1008.96 1009.33 1009.78 1010.27 1010.77 1011.22 1011.57 1011.81 1011.93 1011.98 1011.99 1012.00 1012.07 1012.19 1012.38 1012.61 1012.84 1013.04 1013.19 1013.26 1013.28 1013.26 1013.24 1013.25 1013.31
1005.81 1006.82 1008.01 1009.16 1010.06 1010.53 1010.49 1009.90 1008.87 1007.54 1006.14 1004.87 1003.91 1003.37 1003.27 1003.56 1004.16 1004.92 1005.70 1006.42 1007.02 1007.48 1007.86 1008.19 1008.54 1008.96 1009.44 1009.97 1010.51 1011.01 1011.42 1011.72 1011.91 1012.01 1012.06 1012.10 1012.18 1012.31 1012.51 1012.76 1013.02 1013.25 1013.45 1013.57 1013.64 1013.67 1013.68 1013.70 1013.74
1005.90 1006.94 1008.15 1009.32 1010.24 1010.72 1010.65 1010.03 1008.93 1007.51 1005.99 1004.60 1003.51 1002.83 1002.62 1002.83 1003.37 1004.11 1004.90 1005.66 1006.31 1006.84 1007.28 1007.67 1008.07 1008.53 1009.05 1009.63 1010.21 1010.76 1011.23 1011.59 1011.83 1011.97 1012.05 1012.12 1012.21 1012.36 1012.57 1012.84 1013.13 1013.41 1013.66 1013.85 1013.98 1014.07 1014.11 1014.15 1014.19
1006.05 1006.98 1008.09 1009.18 1010.02 1010.46 1010.37 1009.74 1008.64 1007.21 1005.69 1004.26 1003.12 1002.38 1002.08 1002.22 1002.70 1003.39 1004.17 1004.93 1005.61 1006.19 1006.68 1007.13 1007.60 1008.10 1008.67 1009.29 1009.91 1010.50 1011.02 1011.42 1011.70 1011.88 1011.99 1012.08 1012.19 1012.35 1012.58 1012.87 1013.20 1013.53 1013.84 1014.11 1014.31 1014.45 1014.55 1014.61 1014.65
1006.31 1007.00 1007.88 1008.75 1009.43 1009.75 1009.62 1009.00 1007.95 1006.60 1005.15 1003.79 1002.68 1001.94 1001.63 1001.72 1002.14 1002.78 1003.52 1004.27 1004.97 1005.58 1006.12 1006.63 1007.15 1007.71 1008.33 1008.98 1009.64 1010.27 1010.81 1011.25 1011.56 1011.77 1011.91 1012.03 1012.16 1012.34 1012.59 1012.91 1013.27 1013.66 1014.03 1014.36 1014.63 1014.84 1014.98 1015.07 1015.12
1006.76 1007.09 1007.60 1008.16 1008.58 1008.73 1008.51 1007.89 1006.92 1005.70 1004.39 1003.16 1002.16 1001.49 1001.20 1001.28 1001.66 1002.26 1002.97 1003.70 1004.40 1005.04 1005.63 1006.19 1006.77 1007.39 1008.05 1008.74 1009.42 1010.07 1010.64 1011.10 1011.45 1011.69 1011.86 1012.01 1012.17 1012.38 1012.66 1013.01 1013.41 1013.84 1014.26 1014.65 1014.98 1015.23 1015.42 1015.54 1015.60
Thickness
5830 5830 5827 5817 5797 5787 5787 5798 5803 5801 5802 5810 5811 5806 5794 5787 5778 5768 5794 5805 5804 5800 5797 5794 5792 5791 5790 5790 5789 5789 5789 5788 5789 5789 5788 5788 5787 5786 5785 5784 5783 5782 5781 5780 5779 5779 5778 5778 5778
5838 5836 5824 5809 5790 5781 5785 5800 5799 5801 5809 5815 5812 5805 5795 5789 5795 5792 5797 5803 5804 5801 5797 5794 5792 5791 5789 5788 5788 5788 5787 5787 5787 5787 5787 5786 5786 5785 5784 5783 5782 5781 5780 5779 5778 5778 5777 5777 5777
5840 5838 5818 5804 5797 5790 5790 5803 5806 5813 5819 5814 5805 5802 5794 5788 5794 5794 5800 5806 5804 5800 5796 5793 5792 5789 5788 5787 5786 5786 5785 5785 5785 5785 5785 5784 5784 5783 5782 5782 5781 5780 5779 5778 5777 5777 5775 5776 5775
5840 5830 5820 5808 5801 5808 5809 5813 5817 5814 5816 5817 5808 5794 5794 5800 5800 5801 5806 5807 5803 5799 5796 5791 5790 5788 5786 5786 5785 5785 5784 5784 5784 5784 5784 5783 5783 5782 5781 5780 5780 5779 5777 5777 5776 5775 5775 5774 5774
5839 5821 5805 5806 5809 5818 5824 5825 5824 5813 5810 5811 5805 5789 5786 5801 5807 5807 5807 5807 5803 5800 5797 5791 5789 5787 5786 5785 5784 5784 5783 5783 5783 5783 5782 5782 5781 5781 5780 5779 5779 5778 5777 5776 5775 5775 5774 5773 5772
5825 5818 5806 5802 5811 5821 5826 5831 5826 5816 5811 5811 5803 5791 5787 5802 5804 5805 5808 5807 5806 5802 5797 5791 5788 5787 5785 5784 5783 5783 5782 5782 5782 5782 5781 5781 5780 5780 5779 5778 5777 5776 5776 5775 5774 5773 5772 5772 5771
5826 5818 5815 5815 5814 5816 5825 5834 5825 5816 5810 5811 5810 5792 5790 5799 5805 5807 5807 5807 5806 5803 5799 5794 5789 5786 5785 5784 5783 5782 5781 5781 5781 5781 5780 5780 5779 5779 5778 5777 5776 5775 5775 5774 5773 5772 5771 5771 5771
5856 5837 5821 5822 5816 5815 5831 5834 5831 5822 5814 5824 5820 5796 5789 5800 5808 5809 5807 5805 5804 5803 5800 5796 5793 5790 5787 5784 5782 5781 5781 5781 5780 5780 5779 5779 5778 5778 5777 5776 5775 5775 5774 5773 5772 5771 5771 5770 5770
5868 5834 5819 5824 5822 5823 5835 5830 5830 5834 5824 5821 5821 5813 5809 5812 5811 5806 5802 5800 5800 5800 5800 5799 5796 5793 5791 5788 5784 5782 5781 5780 5780 5780 5778 5778 5778 5778 5777 5776 5775 5774 5773 5773 5772 5771 5771 5770 5770
5859 5829 5829 5843 5843 5837 5838 5833 5831 5826 5816 5812 5813 5814 5815 5813 5808 5802 5798 5796 5797 5797 5799 5800 5798 5795 5793 5791 5786 5785 5783 5781 5780 5780 5779 5778 5778 5777 5777 5775 5774 5774 5773 5772 5772 5771 5770 5770 5770
5861 5844 5848 5853 5856 5850 5841 5837 5840 5825 5810 5811 5808 5809 5812 5810 5807 5803 5800 5799 5799 5800 5800 5800 5800 5797 5795 5792 5788 5787 5785 5783 5782 5781 5780 5779 5778 5777 5776 5775 5774 5773 5773 5773 5772 5771 5771 5772 5772
5860 5859 5861 5859 5861 5853 5844 5841 5835 5827 5821 5827 5823 5819 5815 5810 5807 5805 5802 5802 5802 5801 5801 5802 5801 5798 5795 5792 5790 5788 5786 5784 5783 5781 5781 5780 5779 5778 5777 5776 5775 5775 5775 5774 5773 5773 5773 5773 5773
5859 5859 5865 5866 5864 5857 5850 5840 5834 5830 5835 5834 5828 5822 5816 5812 5810 5810 5808 5806 5804 5801 5802 5802 5801 5798 5794 5791 5790 5789 5787 5786 5785 5783 5782 5781 5780 5778 5778 5777 5777 5777 5776 5775 5774 5774 5773 5773 5773
5863 5864 5864 5865 5861 5858 5847 5841 5836 5831 5838 5831 5825 5820 5818 5815 5812 5810 5807 5805 5803 5802 5802 5802 5800 5797 5794 5791 5789 5789 5788 5787 5786 5784 5784 5782 5780 5779 5779 5778 5777 5777 5777 5776 5775 5774 5773 5773 5772
5870 5856 5854 5859 5861 5858 5849 5830 5830 5838 5839 5829 5824 5821 5819 5817 5815 5811 5809 5807 5806 5804 5803 5802 5800 5797 5794 5792 5791 5790 5790 5789 5787 5786 5784 5783 5782 5781 5780 5778 5777 5777 5777 5776 5775 5774 5773 5772 5772
5857 5843 5832 5850 5859 5858 5842 5812 5832 5842 5837 5827 5825 5823 5819 5817 5817 5816 5814 5811 5809 5806 5803 5803 5803 5797 5794 5792 5791 5791 5790 5790 5788 5786 5784 5783 5783 5782 5780 5779 5778 5778 5778 5777 5776 5774 5772 5770 5769
5838 5824 5827 5843 5863 5858 5842 5821 5837 5846 5839 5829 5827 5824 5821 5818 5818 5818 5817 5814 5811 5807 5804 5801 5800 5796 5793 5792 5791 5791 5790 5789 5788 5787 5784 5783 5783 5783 5781 5779 5779 5779 5778 5777 5776 5773 5771 5768 5767
5826 5829 5833 5840 5859 5859 5841 5832 5839 5848 5843 5834 5830 5826 5823 5819 5818 5820 5820 5817 5813 5809 5805 5802 5799 5796 5794 5792 5791 5790 5789 5788 5788 5787 5785 5784 5783 5783 5782 5780 5779 5778 5777 5775 5774 5771 5770 5768 5767
5851 5844 5837 5847 5865 5856 5844 5836 5838 5846 5844 5838 5833 5830 5825 5822 5824 5823 5821 5818 5813 5809 5805 5801 5798 5795 5793 5790 5788 5785 5784 5786 5787 5786 5786 5785 5784 5783 5781 5780 5778 5778 5775 5773 5773 5770 5768 5766 5766
5851 5841 5838 5851 5863 5856 5844 5840 5843 5847 5846 5845 5840 5834 5830 5826 5824 5821 5820 5818 5813 5808 5805 5802 5798 5796 5794 5791 5789 5788 5787 5787 5787 5786 5785 5784 5783 5783 5783 5779 5778 5777 5775 5773 5772 5770 5766 5765 5765
5850 5843 5843 5843 5854 5854 5841 5828 5834 5845 5851 5850 5848 5843 5838 5831 5825 5821 5819 5817 5815 5810 5806 5804 5800 5797 5795 5793 5791 5790 5787 5785 5784 5783 5783 5784 5783 5782 5781 5780 5778 5777 5775 5772 5771 5769 5766 5761 5763
5843 5860 5856 5851 5841 5832 5838 5806 5823 5835 5841 5844 5845 5844 5841 5837 5832 5826 5822 5818 5816 5813 5810 5806 5801 5798 5796 5793 5790 5786 5782 5779 5780 5782 5782 5782 5781 5781 5780 5779 5778 5776 5775 5773 5771 5770 5767 5763 5759
5856 5869 5863 5857 5844 5833 5836 5820 5820 5834 5829 5837 5845 5847 5846 5843 5838 5831 5827 5822 5820 5817 5813 5808 5803 5798 5796 5793 5791 5787 5783 5782 5783 5783 5781 5780 5780 5780 5779 5778 5777 5776 5774 5773 5771 5769 5767 5765 5761
5869 5862 5858 5855 5842 5814 5835 5824 5812 5830 5832 5838 5844 5850 5850 5847 5843 5837 5833 5828 5823 5820 5815 5810 5803 5798 5796 5793 5791 5787 5784 5782 5780 5779 5778 5777 5778 5778 5778 5777 5776 5774 5773 5772 5771 5769 5767 5765 5763
5860 5838 5818 5810 5807 5809 5843 5833 5824 5848 5855 5853 5850 5854 5855 5852 5845 5839 5833 5827 5823 5820 5816 5811 5804 5798 5796 5793 5791 5788 5786 5783 5780 5778 5777 5776 5776 5776 5776 5777 5775 5773 5772 5771 5770 5768 5767 5765 5763
5851 5843 5813 5797 5799 5812 5833 5827 5841 5866 5868 5867 5864 5861 5859 5854 5849 5842 5836 5831 5826 5822 5817 5813 5806 5800 5797 5794 5791 5789 5786 5784 5782 5780 5779 5777 5776 5777 5777 5776 5775 5773 5772 5771 5769 5768 5766 5765 5763
5844 5841 5852 5833 5822 5813 5822 5835 5852 5866 5866 5866 5862 5859 5857 5855 5851 5846 5841 5836 5831 5826 5821 5816 5809 5802 5799 5795 5792 5789 5786 5784 5783 5781 5780 5779 5778 5778 5776 5775 5774 5772 5771 5769 5768 5766 5764 5762 5761
5859 5853 5842 5827 5805 5799 5813 5821 5829 5845 5853 5855 5855 5854 5855 5856 5853 5849 5844 5839 5836 5831 5825 5819 5812 5806 5801 5797 5794 5791 5787 5785 5783 5781 5779 5779 5778 5777 5776 5774 5772 5770 5769 5768 5765 5764 5763 5761 5759
5844 5842 5838 5834 5830 5807 5798 5811 5851 5849 5855 5857 5858 5859 5857 5854 5853 5850 5846 5843 5838 5832 5827 5820 5814 5808 5803 5799 5795 5792 5788 5786 5784 5781 5779 5778 5777 5776 5774 5773 5770 5769 5767 5766 5764 5762 5761 5759 5757
5851 5844 5839 5818 5816 5823 5812 5817 5864 5861 5862 5859 5858 5860 5860 5856 5854 5853 5848 5842 5837 5831 5826 5820 5815 5809 5805 5801 5796 5792 5789 5786 5783 5781 5779 5777 5775 5774 5773 5771 5769 5768 5766 5764 5761 5759 5758 5756 5755